STARLINK-36713, 67701

Orbit data source: Space-Track

STARLINK-36713, 67701 is a payload satellite owned by SpaceX/Seattle (US) in SSO that was launched on Sat, 07 Feb 2026 UTC via an FALCON 9 launch vehicle from the Air Force Western Test Range (AFWTR). Payload-class satellites include a variety of spacecraft equipped with specific instruments for various scientific and technological missions. These include communications satellites like Starlink; space stations such as the ISS; scientific satellites like the Hubble; Earth observation satellites from companies like Planet Labs, Umbra, and HawkEye 360; GPS; miniature CubeSats for education and research; and military/defense satellites.

Loading next visibility...
Identifier
67701, 2026-025J
Orbit
SSO
Country
Flag of USUS
Related business
Manufacturer
SpaceX/Seattle
Mission
Operational Commercial Communications
Bus & Motor
STARLINK V2MO, Unknown motor
Mass
575 kg wet, ~530 kg dry
Launch date (UTC)
2026-02-07 (4 months ago)
Launch vehicle
FALCON 9
Launch site
Air Force Western Test Range (AFWTR)
Object type
Payload
Rocket body
Debris
Shape & HBR
Box + 2 Pan, 17.7 m
Radar Cross Section
36.964 m², Large (>1 m²)

Expand to show TLE details & history
Last TLE update: 13 hours ago

TLE from 13 hours ago
0 STARLINK-36713
1 67701U 26025J   26171.29894735  .00018408  00000-0  57079-3 0  9992
2 67701  97.2838 282.4786 0000791 131.9163 228.2147 15.33463759 21744
Epoch: 2026-06-20T07:10Z
TLE epoch observation values (Epoch: 2026-06-20T07:10:29.051Z)
Latitude
-0.00003°
Longitude
-93.65801°
Altitude
468.96 km
Speed
7.632 km/s
True Right ascension
18h 49m 54s
True Declination
0° 00' 00"
Sunlit
Object was in full shadow at epoch
Visualization orbit readout
Latitude
Unknown
Longitude
Unknown
Altitude
Unknown
Speed
Unknown
Apparent Right ascension
Unknown
Apparent Declination
Unknown
Sunlit
N/A
Visualization observer readout
Local Sidereal Time
07:19:49
Azimuth
Unknown
Elevation
Unknown
Doppler factor
Unknown
Orbital elements
Apogee altitude
462.971 km
Perigee altitude
461.889 km
Semi-major axis
6,840.567 km
Eccentricity
0.00008
Inclination
97.2838°
RAAN
282.4786°
Arg. of periapsis
131.9163°
True anomaly
228.20794°
Mean anomaly
228.2147°
Eccentric anomaly
228.21132°
Mean motion
3.83623 °/min
Orbital period
93.84 mins
BSTAR
0.00057079
Loading maneuver chart data...
Computing Atmospheric mass density...
Loading historical data...
Loading historical data...
Loading historical data...
Loading historical data...
Loading historical data...
Loading historical data...
Loading historical data...

Documentation

Showing up to 5 results
|